Temperature
29 30 30 30 30 30 30 30 30 31 31 31 30 30 29 27 27 26 25 24 24 23 22 21 21 21 21 20 20 20 20 20 19 19 19 19 18 18 18 18 17 17 17 17
28 29 29 29 29 30 30 30 30 30 30 31 30 29 28 27 26 26 25 24 23 22 21 21 21 21 20 20 20 20 19 19 19 19 19 19 18 18 18 18 18 17 17 17
28 28 28 28 29 29 29 29 30 30 30 30 29 28 27 26 25 25 24 23 22 22 21 21 21 21 20 20 20 20 19 19 19 19 19 18 18 18 18 18 17 17 17 17
27 27 26 28 29 29 29 29 29 29 29 28 28 27 26 25 25 24 24 23 22 22 21 21 20 20 20 20 20 20 19 19 19 19 18 18 18 18 18 17 17 17 17 17
27 26 27 28 28 28 28 28 28 28 28 27 26 26 26 24 24 23 23 22 22 21 21 21 20 20 20 20 20 19 19 19 19 18 18 18 18 17 17 17 17 17 16 16
25 25 26 27 28 27 27 26 27 26 26 26 25 27 27 23 22 22 22 22 21 21 20 20 20 20 20 19 19 19 19 19 18 18 18 18 18 17 17 17 16 16 16 16
25 25 27 27 26 26 26 26 25 25 24 24 24 25 23 22 22 21 21 21 20 20 20 20 20 19 19 19 19 19 18 18 18 18 17 17 17 17 17 16 16 16 16 16
24 24 25 25 25 25 24 23 23 23 23 23 22 22 21 21 21 21 20 20 20 20 19 19 19 19 19 19 19 18 18 18 18 17 17 17 17 17 16 16 16 16 16 16
25 25 23 23 23 22 22 22 22 22 22 21 21 21 20 20 20 20 20 20 19 19 19 19 18 18 18 18 18 18 18 17 17 17 16 16 16 16 16 16 16 16 16 16
23 23 23 22 22 21 21 21 21 21 21 20 20 20 19 19 19 19 19 19 19 19 18 18 18 18 18 18 18 17 17 17 17 16 16 16 16 16 16 16 16 16 16 16
22 22 22 22 21 20 20 20 20 20 20 20 19 19 19 18 18 18 18 18 18 18 18 18 17 17 17 17 17 17 17 16 16 16 16 16 16 16 16 15 15 15 15 15
22 21 22 21 20 20 20 19 19 19 19 19 19 18 18 18 17 17 17 17 17 18 17 17 17 17 17 17 17 16 16 16 16 16 16 16 16 16 16 15 15 15 15 14
19 19 19 19 19 19 19 19 18 18 18 18 18 18 18 17 17 17 17 17 17 17 17 16 17 17 16 16 16 16 16 16 15 16 15 15 15 15 15 15 15 14 14 14
17 17 18 18 18 18 18 18 18 17 17 17 17 17 17 17 17 17 16 16 16 16 16 16 16 16 16 15 15 15 15 15 15 15 15 15 15 15 15 15 14 14 14 14
17 17 17 17 17 17 17 17 17 17 17 17 17 17 17 16 16 16 16 16 15 15 15 15 15 15 15 15 15 14 14 14 14 14 14 14 14 14 14 14 14 14 14 13
16 16 16 16 16 16 17 17 17 17 16 16 16 16 16 16 15 15 15 15 14 14 14 14 14 14 14 14 14 14 14 14 14 13 14 14 13 13 13 13 13 13 13 13
15 16 16 16 16 16 16 16 16 16 16 15 15 15 15 15 15 14 14 14 14 14 14 14 13 14 14 14 14 13 13 13 13 13 13 13 13 13 13 13 13 13 13 12
15 15 15 15 15 15 15 15 15 15 15 15 14 14 14 14 14 14 14 14 13 13 13 13 13 13 13 13 13 13 13 13 13 13 13 12 12 12 12 12 12 12 12 12
15 15 15 15 15 15 15 15 14 14 14 14 14 14 14 14 14 13 13 13 13 13 13 13 13 13 12 12 12 12 12 12 12 12 12 12 12 12 12 12 12 12 11 11
15 14 14 14 14 14 14 14 14 14 14 13 13 13 13 13 13 13 13 13 13 12 12 12 12 12 12 12 12 12 12 12 12 12 12 12 12 12 12 11 11 11 11 11
14 14 14 14 14 14 13 13 13 13 13 13 13 13 12 12 12 12 12 12 12 12 12 12 12 11 11 11 11 11 11 11 11 11 11 11 11 11 11 11 11 10 10 10
14 14 13 13 13 13 13 13 13 13 12 12 12 12 12 12 12 12 12 12 12 12 11 11 11 11 11 11 11 11 11 11 11 11 11 11 11 10 10 10 10 10 10 9
13 13 13 13 13 13 12 12 12 12 12 12 12 12 12 12 12 12 11 11 11 11 11 11 10 10 11 11 10 10 10 10 10 10 10 10 10 10 10 9 9 9 9 9
12 12 12 12 12 12 12 12 12 12 12 11 11 11 11 11 11 11 11 11 11 10 10 10 10 10 10 10 10 10 10 10 10 9 9 9 9 9 9 9 9 8 8 8
12 12 12 11 11 12 11 11 11 11 11 11 11 11 11 11 11 10 10 10 10 10 10 10 10 10 10 9 9 9 9 9 9 9 9 8 8 8 8 8 8 8 8 8
11 11 11 11 11 11 11 11 11 11 11 11 11 11 11 10 10 10 10 10 9 9 9 9 9 9 9 9 9 9 9 9 9 9 8 8 8 8 7 7 7 7 7 7
11 11 11 11 11 11 11 11 11 11 11 11 11 10 10 10 10 10 10 9 9 9 9 9 9 9 9 8 8 8 8 8 8 8 8 8 8 7 7 7 7 7 7 7
Wind_Speed
11 9 9 10 11 12 13 13 13 13 12 8 5 4 3 4 5 6 6 6 7 7 7 6 6 6 6 6 6 6 6 6 5 5 4 4 4 4 4 4 5 4 4 5
12 11 12 13 13 13 13 13 14 14 12 6 4 3 3 3 5 6 7 6 6 6 7 7 7 6 6 6 6 6 6 6 5 4 4 4 5 5 5 5 5 5 5 5
12 11 12 16 14 14 13 11 12 13 9 5 5 4 3 3 4 6 6 6 6 6 7 6 6 6 6 6 6 6 6 6 5 5 5 5 5 5 5 5 5 6 6 6
11 11 16 9 6 9 10 10 10 10 8 6 6 5 3 3 4 5 5 6 6 6 7 7 6 6 5 6 6 6 6 6 5 5 5 5 5 5 5 5 5 5 5 6
11 15 15 10 7 8 9 10 7 8 7 6 5 5 4 0 1 3 4 5 5 5 6 5 6 5 5 5 6 6 6 6 5 5 5 5 5 5 5 5 5 6 5 6
11 14 15 8 5 6 8 10 4 4 4 4 4 7 3 1 2 1 2 3 4 5 5 5 4 4 5 5 5 6 5 5 5 5 5 6 6 5 5 5 5 6 5 5
15 14 11 3 3 5 9 4 2 3 3 3 4 6 4 3 2 1 2 3 4 5 5 5 4 4 5 5 5 4 4 4 5 5 6 6 5 5 5 5 5 5 5 6
12 14 10 2 4 5 2 3 3 3 3 3 4 4 3 2 2 2 2 3 4 4 4 4 4 5 4 4 4 3 4 4 5 6 6 5 5 5 5 5 6 6 6 6
7 6 0 1 1 0 1 3 4 4 4 4 3 3 3 2 2 2 2 3 3 4 4 4 4 4 4 3 3 3 4 5 5 5 5 5 6 6 6 6 6 5 5 6
6 6 5 4 3 2 2 4 5 5 4 3 3 3 3 2 2 2 2 2 3 4 4 3 3 4 3 2 2 3 4 4 4 5 5 5 5 6 6 6 6 6 6 6
9 7 6 6 4 3 3 4 5 5 5 4 4 3 3 2 2 2 2 2 2 3 3 3 3 3 2 2 2 3 3 3 4 5 4 4 5 5 6 5 5 6 7 7
8 5 7 5 4 5 5 5 5 6 6 5 4 4 3 3 2 2 2 1 2 2 3 2 3 2 2 2 3 4 4 3 3 3 3 4 5 5 4 5 4 5 6 7
8 7 7 7 7 6 6 6 6 6 6 5 5 4 4 3 3 3 3 2 2 2 2 2 2 2 2 2 2 3 4 3 4 4 4 5 5 5 5 5 6 7 8 9
6 6 7 6 6 6 6 6 5 5 5 5 5 4 4 4 4 3 3 3 2 2 2 2 1 1 2 2 2 3 4 3 4 4 4 5 5 5 6 6 6 5 7 9
8 7 7 6 6 5 5 4 4 4 5 5 5 4 4 3 3 2 2 2 1 2 2 2 1 1 2 2 2 3 4 4 3 4 4 5 5 5 6 6 6 6 6 4
7 7 7 6 6 6 6 6 5 5 5 5 5 4 4 3 3 2 1 2 3 2 2 2 2 2 2 3 3 3 3 3 4 4 5 4 4 5 5 5 6 6 6 5
7 7 7 6 6 6 6 6 6 5 5 5 5 4 4 3 2 2 2 2 2 2 2 1 2 3 3 4 4 4 4 4 4 5 5 5 5 5 5 5 6 6 6 4
8 8 8 7 6 6 6 6 6 5 5 5 4 4 4 3 3 2 2 1 1 1 1 1 2 3 3 4 4 4 4 4 4 4 4 4 5 5 5 5 5 5 6 4
7 7 7 7 7 6 6 6 5 5 4 4 4 4 3 3 2 2 2 1 1 1 1 1 2 3 3 3 4 4 4 4 4 4 4 4 5 5 5 5 4 4 4 3
5 6 6 6 7 6 6 5 4 4 3 3 3 3 3 2 2 2 2 2 1 1 1 2 2 2 3 3 4 4 4 4 4 4 4 5 5 4 4 4 3 3 3 4
4 4 4 4 4 4 3 3 3 3 3 3 3 3 2 1 1 1 1 0 1 1 1 1 1 2 2 3 5 3 3 4 4 4 4 4 4 4 3 3 3 3 3 4
3 3 3 3 2 2 2 1 2 2 2 2 2 2 2 2 1 1 1 1 1 2 1 1 1 3 4 4 3 3 3 3 3 3 3 3 3 3 3 3 3 3 4 4
3 2 2 1 1 2 1 1 1 1 1 2 2 2 2 1 1 1 1 2 1 2 1 2 4 4 4 3 2 2 3 3 3 3 3 3 3 3 4 4 4 4 4 4
2 2 2 1 2 3 3 3 3 3 3 3 3 3 2 2 1 1 2 3 3 3 3 4 4 2 4 1 2 2 2 3 3 3 3 3 3 4 4 4 4 4 3 4
1 1 1 2 2 3 3 3 3 3 3 3 3 3 2 2 2 2 3 3 4 2 3 4 3 2 2 3 3 3 3 3 4 3 3 4 4 4 4 4 4 4 3 3
0 1 1 2 2 2 2 2 2 2 2 3 3 3 3 4 4 3 2 3 4 3 3 3 3 2 3 4 4 4 4 4 3 3 4 4 4 4 4 4 4 4 4 4
1 1 1 2 2 2 2 2 2 2 2 2 3 3 3 3 3 3 3 3 3 3 3 3 3 3 4 4 4 4 4 4 4 4 4 4 4 4 4 4 4 3 4 4
Wind_Direction
257 262 254 249 240 232 239 253 263 271 273 278 294 295 268 224 199 185 178 179 179 176 172 171 173 176 176 177 179 181 184 192 197 205 212 223 230 236 235 241 247 248 253 258
246 245 247 249 248 244 244 253 259 266 270 284 295 292 270 225 204 195 190 187 182 178 176 176 177 176 175 178 181 183 188 193 194 203 213 222 231 234 236 242 251 252 253 258
246 241 246 245 243 243 244 250 259 262 273 284 285 287 272 235 214 207 199 190 186 184 183 182 178 175 180 180 179 182 188 192 195 204 213 220 231 230 236 242 247 250 255 258
249 242 244 249 245 248 249 254 263 270 273 274 279 278 259 251 235 220 208 200 195 192 188 184 177 174 178 181 185 190 195 198 202 210 215 220 229 235 240 245 249 253 255 257
244 243 246 236 233 244 249 253 267 268 269 281 294 269 229 290 261 241 220 211 201 193 186 178 176 176 181 191 197 204 207 208 208 215 222 227 231 238 245 246 249 254 252 255
238 247 248 239 219 239 249 243 274 279 280 284 277 263 256 356 307 280 228 204 192 183 179 172 173 180 193 202 206 213 216 216 214 218 226 232 235 239 244 248 251 256 256 260
237 245 250 247 209 209 234 254 353 308 295 280 279 301 316 305 288 243 214 191 185 181 178 174 173 180 199 209 213 217 217 217 220 223 230 232 232 235 239 244 252 258 262 264
233 242 240 172 201 223 282 359 342 322 307 300 313 334 326 303 278 241 204 186 182 180 178 173 175 182 196 210 214 212 217 222 223 228 239 233 229 235 237 242 244 247 251 262
240 246 316 212 208 315 313 307 320 321 319 318 319 326 327 311 282 256 228 198 188 183 180 181 185 186 196 205 208 211 221 230 232 231 233 235 233 234 238 238 250 259 265 271
245 238 242 240 242 256 278 292 301 303 305 303 300 305 313 309 300 278 246 208 201 193 184 185 191 194 191 195 211 218 231 234 230 232 233 232 238 241 249 254 260 267 274 280
243 248 250 236 242 265 288 295 295 293 289 287 286 281 282 277 288 289 268 238 210 204 197 193 192 201 199 189 203 222 234 245 246 243 241 243 246 256 256 261 264 266 274 280
254 252 263 258 269 272 276 284 289 290 286 282 277 273 270 266 265 269 271 276 237 218 212 204 199 198 206 203 214 227 231 243 261 266 261 259 258 264 256 247 233 231 250 267
272 278 281 277 278 277 276 283 283 278 275 280 281 273 268 263 252 250 256 261 260 252 232 215 210 217 229 225 236 247 250 256 262 266 265 268 265 265 270 255 234 229 230 238
267 268 265 268 275 282 279 277 275 274 276 279 276 271 266 264 263 259 260 261 260 260 239 224 230 251 271 259 257 267 272 272 271 275 277 276 273 274 274 275 273 268 239 226
261 263 264 269 271 275 272 263 257 261 270 275 274 272 271 272 271 271 270 264 260 253 252 240 242 284 301 282 271 273 281 287 292 294 287 283 281 279 278 279 282 283 281 252
265 264 258 254 256 262 260 257 260 266 273 278 278 273 270 268 259 255 245 234 236 248 263 276 283 293 294 292 284 275 271 270 272 285 286 287 285 281 278 278 281 285 287 294
258 259 260 259 257 260 266 270 270 269 271 272 269 264 261 252 241 232 238 242 237 232 242 262 293 298 287 280 279 281 285 279 252 270 280 284 285 286 284 279 287 292 297 313
260 263 261 259 262 267 270 273 274 273 270 267 259 252 244 229 227 239 250 252 247 231 242 279 299 291 293 292 292 290 288 285 284 284 286 288 294 291 291 291 296 303 306 292
254 253 257 257 259 260 263 266 270 270 263 251 244 245 237 232 231 233 222 217 218 232 263 280 277 273 291 300 299 282 286 289 290 290 288 286 286 294 294 295 302 306 309 324
260 257 256 257 257 255 258 259 258 252 243 233 229 222 214 216 212 216 209 215 272 325 322 320 293 297 296 295 289 284 290 296 299 297 293 294 299 303 304 306 312 319 322 323
269 266 264 262 259 251 238 241 243 237 232 225 217 207 195 185 179 192 207 214 32 8 330 301 302 309 297 301 276 286 295 302 307 309 307 309 312 313 319 324 321 323 324 323
293 283 273 262 237 223 214 216 213 212 224 213 189 178 160 151 141 112 85 36 32 4 327 335 345 11 342 307 299 314 320 323 325 325 324 326 326 327 332 332 324 330 334 336
322 318 301 249 179 172 142 110 121 147 138 128 137 154 149 123 116 114 93 68 44 14 357 25 33 21 329 302 322 323 327 332 336 339 342 345 343 339 343 345 346 345 346 343
349 354 5 57 100 110 103 87 83 94 103 103 104 109 113 116 99 75 77 85 59 35 36 61 60 2 298 319 351 359 8 8 9 11 13 12 7 360 359 357 354 352 343 339
334 31 72 105 104 99 99 96 88 90 95 96 89 88 92 90 89 78 74 71 66 48 53 75 87 349 356 30 37 37 34 28 22 22 22 15 11 7 1 356 351 340 341 354
65 83 98 97 89 96 99 99 93 92 94 88 83 76 74 77 79 80 86 87 75 61 54 53 45 33 35 37 39 38 37 37 34 28 26 16 9 4 357 353 353 353 358 3
135 118 108 96 95 95 98 101 102 99 104 103 93 83 79 80 82 78 74 71 68 59 57 56 48 42 39 39 41 37 31 28 27 23 19 13 10 6 0 357 358 358 356 0
Height
1487 1485 1484 1486 1487 1487 1489 1487 1490 1485 1483 1481 1482 1486 1488 1491 1493 1494 1496 1498 1499 1501 1503 1504 1506 1507 1509 1510 1511 1513 1514 1515 1516 1516 1517 1517 1517 1517 1517 1517 1517 1516 1516 1515
1491 1486 1485 1487 1484 1484 1485 1484 1484 1483 1482 1480 1483 1486 1488 1490 1492 1493 1495 1496 1498 1499 1501 1502 1503 1505 1506 1508 1509 1510 1511 1512 1513 1514 1514 1514 1515 1515 1515 1514 1514 1513 1513 1512
1491 1486 1487 1490 1482 1481 1481 1480 1481 1482 1481 1481 1483 1485 1487 1489 1490 1491 1493 1494 1496 1497 1498 1500 1501 1502 1504 1505 1507 1508 1508 1509 1510 1511 1511 1512 1512 1512 1511 1511 1511 1510 1509 1509
1489 1492 1503 1482 1476 1477 1479 1479 1479 1479 1479 1482 1483 1484 1486 1488 1489 1490 1491 1492 1494 1495 1496 1498 1499 1500 1501 1503 1504 1505 1506 1507 1507 1508 1508 1508 1509 1508 1508 1507 1507 1506 1506 1505
1489 1491 1486 1479 1477 1478 1480 1480 1479 1479 1480 1482 1483 1483 1483 1486 1487 1488 1489 1490 1491 1493 1494 1496 1497 1498 1499 1500 1502 1503 1504 1504 1504 1505 1505 1505 1505 1505 1505 1504 1503 1503 1502 1501
1490 1493 1490 1477 1475 1478 1481 1483 1481 1481 1482 1483 1483 1480 1479 1484 1486 1486 1487 1488 1490 1491 1492 1493 1494 1495 1496 1497 1498 1499 1500 1501 1501 1501 1502 1502 1501 1501 1501 1500 1500 1499 1499 1498
1487 1488 1476 1474 1476 1479 1487 1483 1483 1482 1483 1484 1483 1483 1484 1484 1484 1485 1485 1486 1487 1489 1490 1491 1491 1492 1493 1494 1495 1496 1496 1497 1497 1497 1497 1498 1498 1497 1497 1496 1496 1496 1495 1494
1484 1487 1481 1476 1477 1479 1482 1483 1483 1483 1484 1484 1484 1483 1483 1482 1483 1483 1484 1484 1485 1486 1487 1488 1488 1489 1490 1490 1491 1492 1492 1493 1493 1493 1494 1494 1494 1493 1493 1493 1493 1492 1491 1490
1477 1479 1479 1478 1479 1482 1483 1484 1484 1483 1484 1484 1483 1482 1482 1481 1481 1481 1482 1482 1483 1484 1485 1485 1486 1486 1487 1487 1487 1488 1488 1489 1489 1489 1489 1490 1490 1490 1489 1489 1489 1489 1488 1486
1478 1476 1478 1480 1481 1482 1483 1483 1483 1483 1483 1483 1482 1481 1481 1480 1480 1480 1480 1481 1481 1482 1483 1483 1484 1484 1484 1484 1484 1484 1484 1484 1484 1485 1485 1486 1486 1486 1486 1486 1485 1485 1484 1483
1477 1477 1478 1479 1480 1481 1481 1481 1481 1481 1481 1481 1481 1480 1480 1479 1479 1479 1478 1479 1480 1480 1480 1481 1481 1481 1481 1480 1480 1481 1482 1481 1481 1481 1482 1481 1481 1482 1482 1481 1481 1480 1479 1478
1473 1476 1476 1477 1479 1479 1479 1479 1479 1479 1479 1479 1479 1478 1478 1478 1477 1477 1477 1477 1477 1478 1478 1478 1479 1479 1479 1478 1478 1478 1479 1478 1478 1478 1478 1477 1477 1476 1475 1475 1475 1474 1473 1472
1477 1476 1476 1477 1477 1478 1478 1477 1477 1477 1477 1477 1476 1476 1476 1475 1475 1476 1476 1476 1476 1476 1476 1476 1477 1476 1476 1476 1476 1476 1475 1475 1475 1474 1473 1473 1472 1472 1471 1470 1469 1468 1467 1466
1476 1476 1474 1475 1475 1475 1475 1475 1475 1474 1474 1474 1474 1474 1474 1474 1474 1473 1474 1474 1474 1474 1474 1474 1474 1474 1474 1474 1473 1473 1473 1472 1472 1471 1470 1470 1469 1468 1467 1466 1465 1463 1462 1461
1473 1473 1472 1472 1472 1472 1472 1472 1472 1472 1472 1471 1471 1471 1471 1471 1471 1471 1471 1472 1472 1471 1471 1471 1471 1471 1471 1471 1471 1470 1470 1470 1469 1468 1467 1467 1466 1464 1463 1462 1461 1459 1458 1456
1470 1470 1469 1469 1469 1469 1469 1469 1469 1469 1469 1469 1469 1469 1469 1469 1468 1469 1469 1469 1469 1469 1468 1468 1468 1467 1468 1468 1468 1467 1467 1466 1465 1464 1464 1463 1462 1460 1459 1458 1457 1456 1454 1453
1467 1466 1466 1466 1466 1466 1466 1466 1466 1466 1466 1466 1466 1466 1466 1465 1466 1466 1466 1466 1466 1466 1466 1466 1466 1465 1465 1465 1465 1465 1464 1463 1462 1461 1461 1460 1458 1457 1456 1454 1453 1452 1450 1449
1463 1463 1463 1463 1463 1463 1463 1463 1463 1463 1463 1463 1463 1463 1462 1462 1463 1463 1463 1464 1464 1464 1464 1464 1463 1463 1463 1463 1462 1462 1461 1460 1460 1458 1457 1456 1454 1453 1452 1451 1449 1448 1446 1444
1458 1458 1459 1459 1459 1460 1459 1459 1459 1459 1460 1460 1460 1460 1460 1460 1461 1461 1461 1461 1461 1462 1462 1461 1461 1461 1461 1460 1459 1459 1459 1458 1456 1455 1454 1452 1451 1450 1449 1447 1446 1445 1443 1440
1455 1455 1455 1455 1455 1455 1455 1456 1456 1456 1456 1457 1457 1457 1458 1458 1458 1459 1460 1460 1460 1460 1459 1459 1459 1458 1458 1458 1457 1457 1456 1455 1453 1452 1451 1450 1448 1447 1446 1445 1444 1443 1441 1439
1452 1451 1451 1450 1450 1450 1451 1452 1453 1453 1454 1454 1454 1455 1455 1455 1456 1457 1458 1458 1458 1457 1457 1457 1456 1456 1456 1456 1455 1454 1453 1452 1451 1450 1449 1447 1445 1445 1444 1442 1441 1440 1439 1438
1449 1448 1448 1448 1447 1448 1449 1450 1450 1451 1451 1452 1452 1453 1453 1454 1455 1455 1456 1456 1456 1455 1456 1456 1455 1454 1454 1453 1453 1452 1451 1449 1448 1447 1446 1445 1444 1443 1442 1440 1440 1439 1437 1436
1447 1446 1446 1445 1445 1446 1447 1448 1448 1449 1449 1449 1450 1450 1451 1453 1454 1455 1455 1455 1455 1455 1454 1454 1453 1452 1451 1451 1451 1450 1449 1448 1447 1446 1444 1444 1443 1442 1441 1439 1438 1437 1436 1434
1446 1446 1445 1444 1444 1445 1445 1446 1447 1448 1449 1449 1450 1451 1452 1452 1454 1455 1455 1454 1454 1454 1453 1452 1452 1451 1450 1450 1449 1448 1447 1446 1445 1444 1443 1442 1441 1440 1439 1438 1436 1435 1434 1432
1446 1445 1445 1445 1445 1445 1446 1447 1448 1449 1450 1450 1452 1453 1453 1454 1454 1454 1454 1454 1454 1453 1453 1452 1451 1450 1449 1449 1448 1447 1446 1445 1444 1443 1442 1441 1440 1439 1438 1436 1435 1434 1432 1431
1445 1445 1445 1445 1446 1446 1447 1448 1449 1450 1450 1451 1452 1453 1454 1454 1454 1455 1454 1454 1454 1453 1453 1452 1451 1450 1450 1449 1448 1447 1446 1445 1444 1443 1442 1441 1440 1438 1437 1435 1434 1433 1431 1430
1446 1446 1446 1446 1447 1447 1448 1449 1450 1451 1452 1452 1453 1454 1454 1455 1455 1455 1455 1454 1454 1454 1453 1453 1452 1451 1451 1450 1449 1448 1447 1446 1444 1443 1442 1441 1439 1437 1436 1435 1433 1432 1430 1429